Location: La Fredeussais
(48.1780°N, 1.3980°W)
Time: 16:18:22
(UTC+00:00)

Cosmos 1869 Rocket - Pass Details

Date: 09 May 2021
Orbit: 605 x 633 km, 82.5° (Epoch: 21 June)

Event Time Altitude Azimuth Distance (km) Brightness Sun altitude
Rises 21:33:34 0° 357° (N) 2,875 8.0 -16.3°
Reaches altitude 10° 21:35:57 10° 6° (N) 1,966 6.8 -16.6°
Maximum altitude 21:39:57 35° 73° (ENE) 978 4.4 -17.0°
Enters shadow 21:41:18 29° 111° (ESE) 1,132 4.4 -17.1°
